Nowra Airport

Jump to: basic info | weather | frequencies | runways | comments

Related pages: nearby airports | nearby navaids | notams | map

Basic information (top)

Codes: NOA YSNW
Location: lon -34.948898, lat 150.537003, elev 400 ft / 122 m msl
Status: medium_airport

Weather (top)

Current conditions (rec'd 2014/07/26 04:00Z):

YSNW 260400Z AUTO 28015KT 9999 // SCT082 18/03 Q1019

Airport forecast for Sydney Kingsford Smith International Airport 68nm (126km) NNE (rec'd 2014/07/25 12:34Z):

TAF YSSY 251112Z 2512/2618 33008KT CAVOK 
     FM251800 30008KT 9999 -RA FEW030 BKN080 
     FM260000 26010KT CAVOK PROB30 INTER 2518/2524 3000 TSRA SCT015 SCT060CB

Frequencies (top)

Verify before use: may be inaccurate or out of date.

APP: 123.5 MHz (APP)
ATIS: 28.04 MHz (ATIS)
CLD: 128.35 MHz (CLNC DEL)
CTAF: 118.85 MHz (CTAF)
FSS: 121.2 MHz (MELBOURNE CNTR)
GND: 135.85 MHz (GND)
TWR: 118.85 MHz (TWR)

Runways (top)

03/21: 6,713 x 148 ft (2,046 x 45 m) — paved — lighted

08/26: 6,870 x 148 ft (2,094 x 45 m) — paved — lighted — threshold 26 displaced 298 ft (91 m)

Latest comments (top)

No comments yet for Nowra Airport

More... (top)

See also NOTAMs and nearby airports and navaids, or visit the Nowra Airport page at the main OurAirports website..